Location: Unspecified
(0.0000°N, 0.0000°E)
Time: 11:38:06
(UTC+00:00)

A-11 Canister half - Pass Details

Date: 05 August 2021
Orbit: 1515 x 1685 km, 47.2° (Epoch: 27 September)

Event Time Altitude Azimuth Distance (km) Brightness Sun altitude
Rises 02:14:31 0° 296° (WNW) 4,917 - -54.1°
Reaches altitude 10° 02:18:15 10° 286° (WNW) 3,916 - -53.3°
Maximum altitude 02:26:33 30° 229° (SW) 2,634 - -51.5°
Drops below altitude 10° 02:34:44 10° 172° (S) 3,821 - -49.7°
Sets 02:38:23 0° 161° (SSE) 4,781 - -48.9°
